Regional Weather Roundup
Issued by NWS Green Bay, WI

Home | Current Version | Previous Version | Text Only | Print | Product List | Glossary On
Versions: 1 2 3 4 5 6 7 8 9 10 11 12 13 14 15 16 17 18 19 20 21 22 23 24 25 26 27 28 29 30 31 32 33 34 35 36 37 38 39 40 41 42 43 44 45 46 47 48 49 50
000
ASUS43 KGRB 010711
RWRGRB

NORTH-CENTRAL AND NORTHEAST WISCONSIN REGIONAL WEATHER ROUNDUP
NATIONAL WEATHER SERVICE GREEN BAY WI
200 AM CDT WED JUL 01 2015

WIZ005-009-010>012-018-019-010800-
NORTH CENTRAL WISCONSIN

CITY           SKY/WX    TMP DP  RH WIND       PRES   REMARKS
IRONWOOD       CLEAR     39  37  93 CALM      29.97S
MANITOWISH WTR CLEAR     40  40 100 CALM      29.99S FOG
ARBOR VITAE    CLEAR     42  40  93 N3        29.98S
EAGLE RIVER    CLEAR     42  42 100 CALM      29.98S
LAND O LAKES   MOCLDY    44  43  99 N3        30.00S
RHINELANDER    FOG       37  36  96 W3        29.99R VSB 1/2
PHILLIPS       PTCLDY    41  41  99 CALM      29.99S
ANTIGO         CLEAR     43  43  99 CALM      29.96S
TOMAHAWK       CLEAR     37  36  96 CALM      29.99S
MERRILL        CLEAR     41  41 100 CALM      29.99S
$$

WIZ013-073-010800-
NORTHEAST WISCONSIN

CITY           SKY/WX    TMP DP  RH WIND       PRES   REMARKS
IRON MOUNTAIN  CLEAR     44  41  89 NW7       29.93F
MARINETTE      CLOUDY    52  41  66 N9        29.93S
OCONTO         CLOUDY    50  47  89 N7        29.92F
$$

WIZ017-030-035>037-045-010800-
CENTRAL WISCONSIN

CITY           SKY/WX    TMP DP  RH WIND       PRES   REMARKS
MEDFORD        CLEAR     43  42  95 CALM      29.98S
WAUSAU         CLEAR     49  46  90 N5        29.97R
MOSINEE        PTCLDY    48  46  93 N6        29.99R
MARSHFIELD     PTCLDY    51  44  77 NE8       29.97S
WISC RAPIDS    PTCLDY    52  45  77 NE5       29.97S
STEVENS POINT  PTCLDY    46  45  94 CALM      29.97S
WAUPACA        CLEAR     50  47  88 NW3       29.96S
SHAWANO        CLEAR     50  46  84 NW5       29.95S
CLINTONVILLE   CLEAR     50  43  76 NW6       29.95S
$$

WIZ038-039-048-051-010800-
FOX VALLEY

CITY           SKY/WX    TMP DP  RH WIND       PRES   REMARKS
NWS GREEN BAY  PTCLDY    51  47  86 NW7       29.93F
APPLETON       CLEAR     50  43  76 N6        29.94F
OSHKOSH        CLEAR     53  45  74 N8        29.94S
FOND DU LAC    CLOUDY    57  49  74 N9        29.94S
$$

WIZ022-050-052-010800-
EAST CENTRAL WISCONSIN

CITY           SKY/WX    TMP DP  RH WIND       PRES   REMARKS
STURGEON BAY   CLOUDY    54  45  71 N9        29.94S
MANITOWOC      MOCLDY    53  48  83 MISG      29.93S
SHEBOYGAN      CLEAR     52  50  93 NW5       29.93S
$$

LMZ563-521-522-541>543-010800-
LAKESHORE

STATION/POSITION TIME  TEMP    WIND        PRES    VSBY  WAVE
                       AIR SEA DIR/SP/G                  HT/PER
                 (UTC) (F)     (DEG/KT/KT) (MB)    (MI)  (FT/S)
SHEBOYGAN LKSHOR 0700   55     300/  7/  8 1013.6F
KEWAUNEE LKSHORE 0600   56     340/  6/ 11 1012.6F
NORTHPORT PIER   0600   53     340/ 14/ 17 1013.2S
N MID LAKE BUOY  0650   46 41  310/ 10/ 12 1012.6F         2/ 4
SISTER BAY LKSHO 0614   53     360/ 15/ 20   N/A
CHAMBERS ISLAND  0600   54     330/ 10/ 14 1013.5S
MENOMINEE LKSHOR 0600   54     330/ 14/ 16 1014.2S
$$



USA.gov is the U.S. government's official web portal to all federal, state and local government web resources and services.